FW0069 Weather Reports


Display with metric or nautical units.
time (UTC)temp
F
wind
direction
speed
MPH
gust
MPH
rain 1hr
in
rain 24hr
in
rain mn
in
humidity
%
barometer
mb
20260508233525 98 302 2.0 11.0 0.00 0.00 0.00 6 1009.8
20260508233024 98 286 6.0 12.0 0.00 0.00 0.00 6 1009.9
20260508232525 98 345 4.0 12.0 0.00 0.00 0.00 6 1009.9
20260508232024 98 360 6.0 14.0 0.00 0.00 0.00 7 1009.9
20260508231024 98 261 2.0 11.0 0.00 0.00 0.00 6 1010.0
20260508230525 98 360 10.0 10.0 0.00 0.00 0.00 6 1010.1
20260508230024 97 360 3.0 14.0 0.00 0.00 0.00 7 1010.0
20260508225525 97 253 0.0 16.0 0.00 0.00 0.00 6 1010.0
20260508225025 98 306 7.0 16.0 0.00 0.00 0.00 7 1010.3
20260508224524 98 297 2.0 13.0 0.00 0.00 0.00 7 1010.3
20260508224025 97 44 3.0 7.0 0.00 0.00 0.00 7 1010.3
20260508223525 97 44 4.0 8.0 0.00 0.00 0.00 6 1010.2
20260508223025 98 360 4.0 14.0 0.00 0.00 0.00 7 1010.5
20260508222524 98 323 5.0 14.0 0.00 0.00 0.00 6 1010.4
20260508222024 98 360 5.0 11.0 0.00 0.00 0.00 7 1010.6
20260508221525 98 229 2.0 13.0 0.00 0.00 0.00 7 1010.8
20260508221025 99 360 8.0 13.0 0.00 0.00 0.00 7 1010.9
20260508220524 98 282 2.0 9.0 0.00 0.00 0.00 7 1010.9
20260508220025 98 27 1.0 9.0 0.00 0.00 0.00 7 1011.0
20260508215524 98 216 4.0 9.0 0.00 0.00 0.00 7 1011.1
20260508215025 98 360 5.0 14.0 0.00 0.00 0.00 7 1011.4
20260508214524 98 194 2.0 17.0 0.00 0.00 0.00 7 1011.3
20260508214024 99 360 9.0 17.0 0.00 0.00 0.00 7 1011.5
20260508213524 99 240 4.0 14.0 0.00 0.00 0.00 7 1011.5
20260508212524 98 360 5.0 13.0 0.00 0.00 0.00 7 1011.4
20260508212024 98 280 4.0 10.0 0.00 0.00 0.00 7 1011.6
20260508211524 99 329 4.0 10.0 0.00 0.00 0.00 7 1011.6
20260508211024 98 227 6.0 10.0 0.00 0.00 0.00 7 1011.7
20260508210524 98 360 3.0 11.0 0.00 0.00 0.00 8 1011.6
20260508210025 98 360 10.0 12.0 0.00 0.00 0.00 8 1011.9
20260508205024 98 360 5.0 13.0 0.00 0.00 0.00 7 1012.2
20260508204024 98 283 7.0 7.0 0.00 0.00 0.00 8 1012.5
20260508203524 97 160 3.0 10.0 0.00 0.00 0.00 8 1012.2
20260508203024 97 360 2.0 15.0 0.00 0.00 0.00 8 1012.4
20260508202524 98 360 9.0 16.0 0.00 0.00 0.00 8 1012.9
20260508202024 98 281 7.0 16.0 0.00 0.00 0.00 7 1012.6
20260508201524 97 28 4.0 6.0 0.00 0.00 0.00 9 1012.7
20260508195524 97 64 3.0 9.0 0.00 0.00 0.00 8 1012.6
20260508195024 97 175 1.0 9.0 0.00 0.00 0.00 9 1012.8
20260508194525 95 108 5.0 7.0 0.00 0.00 0.00 9 1012.9
20260508194025 95 113 1.0 6.0 0.00 0.00 0.00 9 1013.0
20260508193524 95 105 4.0 8.0 0.00 0.00 0.00 9 1013.1
20260508193024 95 308 4.0 10.0 0.00 0.00 0.00 9 1013.2
20260508192024 96 360 5.0 8.0 0.00 0.00 0.00 10 1013.4
20260508191524 95 360 3.0 9.0 0.00 0.00 0.00 10 1013.3
20260508191024 95 56 3.0 9.0 0.00 0.00 0.00 10 1013.4
20260508190524 95 37 3.0 8.0 0.00 0.00 0.00 10 1013.5
20260508190024 94 68 5.0 9.0 0.00 0.00 0.00 9 1013.5
20260508185524 94 360 5.0 10.0 0.00 0.00 0.00 9 1013.5
20260508185024 93 101 7.0 10.0 0.00 0.00 0.00 10 1013.5
20260508184524 94 140 1.0 8.0 0.00 0.00 0.00 10 1013.8
20260508184025 93 71 3.0 8.0 0.00 0.00 0.00 10 1013.7
20260508183524 93 61 4.0 8.0 0.00 0.00 0.00 10 1013.7
20260508183024 92 360 4.0 9.0 0.00 0.00 0.00 10 1013.7
20260508182524 92 97 2.0 9.0 0.00 0.00 0.00 10 1013.8
20260508182024 92 360 2.0 9.0 0.00 0.00 0.00 10 1013.9
20260508181524 92 84 6.0 9.0 0.00 0.00 0.00 10 1013.9
20260508181024 91 360 2.0 9.0 0.00 0.00 0.00 11 1013.8
20260508180524 92 360 6.0 9.0 0.00 0.00 0.00 10 1014.0
20260508180024 92 360 5.0 7.0 0.00 0.00 0.00 10 1014.0
20260508175524 92 51 6.0 8.0 0.00 0.00 0.00 10 1014.3
20260508175024 91 65 5.0 8.0 0.00 0.00 0.00 11 1014.1
20260508174525 90 64 3.0 8.0 0.00 0.00 0.00 11 1014.3
20260508174024 90 360 2.0 8.0 0.00 0.00 0.00 11 1014.4
20260508173524 90 51 4.0 7.0 0.00 0.00 0.00 12 1014.4
20260508173025 90 360 4.0 7.0 0.00 0.00 0.00 11 1014.3
20260508172524 90 360 2.0 7.0 0.00 0.00 0.00 11 1014.5
20260508172024 89 360 2.0 7.0 0.00 0.00 0.00 12 1014.3
20260508171524 88 115 2.0 6.0 0.00 0.00 0.00 11 1014.2
20260508171024 88 360 5.0 6.0 0.00 0.00 0.00 11 1014.3
20260508170524 88 360 4.0 6.0 0.00 0.00 0.00 11 1014.3
20260508170024 88 80 2.0 6.0 0.00 0.00 0.00 11 1014.2
20260508165024 88 360 4.0 6.0 0.00 0.00 0.00 11 1014.5
20260508164524 88 360 0.0 7.0 0.00 0.00 0.00 12 1014.7
20260508163524 86 360 3.0 7.0 0.00 0.00 0.00 13 1014.4
20260508163024 86 68 7.0 7.0 0.00 0.00 0.00 12 1014.5
20260508162024 86 360 4.0 7.0 0.00 0.00 0.00 12 1014.4
20260508161524 85 360 3.0 7.0 0.00 0.00 0.00 12 1014.2
20260508161024 84 360 5.0 8.0 0.00 0.00 0.00 13 1014.2
20260508160524 84 360 3.0 8.0 0.00 0.00 0.00 13 1014.3
20260508155524 83 93 3.0 7.0 0.00 0.00 0.00 14 1014.3
20260508154524 82 93 6.0 7.0 0.00 0.00 0.00 14 1014.3
20260508154023 82 87 5.0 7.0 0.00 0.00 0.00 14 1014.3
20260508153523 81 77 4.0 6.0 0.00 0.00 0.00 16 1014.3
20260508153024 81 46 3.0 6.0 0.00 0.00 0.00 14 1014.3
20260508151524 80 84 3.0 6.0 0.00 0.00 0.00 14 1014.2
20260508151023 80 55 2.0 5.0 0.00 0.00 0.00 16 1014.1
20260508150523 80 56 3.0 5.0 0.00 0.00 0.00 17 1014.1
20260508145524 79 45 2.0 3.0 0.00 0.00 0.00 16 1014.3
20260508144523 79 247 1.0 4.0 0.00 0.00 0.00 16 1014.4
20260508144024 79 248 0.0 4.0 0.00 0.00 0.00 16 1014.4
20260508143524 79 360 4.0 7.0 0.00 0.00 0.00 18 1014.3
20260508143024 78 360 4.0 9.0 0.00 0.00 0.00 17 1014.1
20260508142523 78 360 5.0 10.0 0.00 0.00 0.00 17 1014.1
20260508142023 77 360 6.0 10.0 0.00 0.00 0.00 17 1014.1
20260508141524 76 360 9.0 12.0 0.00 0.00 0.00 17 1013.9
20260508141023 75 234 6.0 12.0 0.00 0.00 0.00 18 1013.8
20260508140524 75 270 6.0 10.0 0.00 0.00 0.00 18 1013.8
20260508140023 75 360 6.0 10.0 0.00 0.00 0.00 18 1013.9
20260508135524 75 360 7.0 10.0 0.00 0.00 0.00 18 1014.0
20260508135024 75 240 4.0 12.0 0.00 0.00 0.00 17 1013.9
20260508134024 74 254 5.0 12.0 0.00 0.00 0.00 17 1013.7
20260508133523 74 360 3.0 12.0 0.00 0.00 0.00 17 1013.7
20260508133024 74 360 6.0 9.0 0.00 0.00 0.00 17 1013.7
20260508132524 74 248 7.0 10.0 0.00 0.00 0.00 17 1013.7
20260508132023 74 238 5.0 10.0 0.00 0.00 0.00 17 1013.6
20260508131524 74 271 3.0 10.0 0.00 0.00 0.00 17 1013.6
20260508130523 73 360 5.0 8.0 0.00 0.00 0.00 17 1013.3
20260508130023 73 360 5.0 12.0 0.00 0.00 0.00 17 1013.0
20260508125523 73 360 5.0 12.0 0.00 0.00 0.00 17 1013.4
20260508125023 73 236 6.0 11.0 0.00 0.00 0.00 17 1013.3
20260508124523 73 360 7.0 10.0 0.00 0.00 0.00 17 1013.2
20260508123024 73 360 5.0 9.0 0.00 0.00 0.00 17 1013.2
20260508122524 73 360 5.0 9.0 0.00 0.00 0.00 17 1013.2
20260508122024 72 360 8.0 10.0 0.00 0.00 0.00 16 1013.1
20260508121523 72 360 7.0 10.0 0.00 0.00 0.00 17 1013.2
20260508121023 71 360 5.0 9.0 0.00 0.00 0.00 17 1013.1
20260508120523 71 273 5.0 9.0 0.00 0.00 0.00 17 1013.1
20260508115524 70 360 3.0 11.0 0.00 0.00 0.00 16 1013.0
20260508115023 70 360 6.0 11.0 0.00 0.00 0.00 16 1013.0
20260508114523 70 223 7.0 11.0 0.00 0.00 0.00 17 1013.0
20260508113524 70 360 6.0 7.0 0.00 0.00 0.00 16 1012.9
20260508112524 70 294 5.0 5.0 0.00 0.00 0.00 16 1012.8
20260508111023 71 311 2.0 6.0 0.00 0.00 0.00 16 1013.0
20260508110524 71 317 4.0 8.0 0.00 0.00 0.00 16 1012.9
20260508105523 71 220 5.0 10.0 0.00 0.00 0.00 15 1012.8
20260508105023 71 360 5.0 11.0 0.00 0.00 0.00 15 1012.8
20260508104523 71 360 8.0 11.0 0.00 0.00 0.00 15 1012.8
20260508104024 71 360 5.0 9.0 0.00 0.00 0.00 16 1012.9
20260508103523 71 360 7.0 13.0 0.00 0.00 0.00 15 1012.8
20260508103023 72 311 5.0 14.0 0.00 0.00 0.00 15 1012.8
20260508102523 72 360 8.0 14.0 0.00 0.00 0.00 15 1012.8
20260508102024 72 360 10.0 14.0 0.00 0.00 0.00 15 1012.8
20260508101523 72 360 11.0 14.0 0.00 0.00 0.00 15 1012.7
20260508101023 72 284 11.0 13.0 0.00 0.00 0.00 15 1012.8
20260508100523 72 246 6.0 12.0 0.00 0.00 0.00 15 1012.8
20260508100023 73 273 3.0 12.0 0.00 0.00 0.00 14 1012.9
20260508095023 73 360 6.0 11.0 0.00 0.00 0.00 14 1012.8
20260508094524 74 360 9.0 13.0 0.00 0.00 0.00 14 1012.8
20260508094023 74 360 4.0 13.0 0.00 0.00 0.00 14 1012.8
20260508093523 74 290 4.0 13.0 0.00 0.00 0.00 14 1012.8
20260508093024 74 308 5.0 11.0 0.00 0.00 0.00 14 1012.8
20260508092524 74 360 10.0 11.0 0.00 0.00 0.00 13 1012.7
20260508092024 75 360 5.0 12.0 0.00 0.00 0.00 14 1012.6
20260508091524 75 253 6.0 13.0 0.00 0.00 0.00 14 1012.7
20260508091024 74 360 2.0 14.0 0.00 0.00 0.00 14 1012.7
20260508090523 74 360 5.0 14.0 0.00 0.00 0.00 14 1012.7
20260508090024 74 259 6.0 11.0 0.00 0.00 0.00 14 1012.7
20260508085523 74 360 8.0 11.0 0.00 0.00 0.00 14 1012.7
20260508085023 74 360 4.0 11.0 0.00 0.00 0.00 14 1012.7
20260508084523 74 360 3.0 10.0 0.00 0.00 0.00 14 1012.7
20260508084023 74 291 4.0 11.0 0.00 0.00 0.00 14 1012.7
20260508083524 74 360 8.0 11.0 0.00 0.00 0.00 15 1012.6
20260508082524 73 263 3.0 6.0 0.00 0.00 0.00 15 1012.6
20260508082023 73 269 2.0 6.0 0.00 0.00 0.00 15 1012.6
20260508081023 74 273 4.0 5.0 0.00 0.00 0.00 15 1012.7
20260508080523 74 277 4.0 6.0 0.00 0.00 0.00 15 1012.8
20260508080023 74 360 2.0 7.0 0.00 0.00 0.00 15 1012.8
20260508075523 75 294 5.0 9.0 0.00 0.00 0.00 15 1012.8
20260508075023 75 277 2.0 9.0 0.00 0.00 0.00 14 1012.8
20260508074523 75 360 9.0 9.0 0.00 0.00 0.00 14 1012.8
20260508074023 75 360 4.0 9.0 0.00 0.00 0.00 14 1012.7
20260508073023 75 294 2.0 9.0 0.00 0.00 0.00 14 1012.7
20260508072023 75 272 4.0 7.0 0.00 0.00 0.00 14 1012.7
20260508071523 75 250 4.0 7.0 0.00 0.00 0.00 15 1012.9
20260508071024 74 360 4.0 7.0 0.00 0.00 0.00 15 1012.8
20260508070523 74 265 2.0 5.0 0.00 0.00 0.00 15 1012.9
20260508070023 74 360 4.0 5.0 0.00 0.00 0.00 15 1012.8
20260508065523 74 271 1.0 3.0 0.00 0.00 0.00 15 1012.6
20260508065023 75 277 1.0 4.0 0.00 0.00 0.00 15 1012.6
20260508064524 75 280 2.0 4.0 0.00 0.00 0.00 15 1012.6
20260508064023 75 271 4.0 5.0 0.00 0.00 0.00 15 1012.6
20260508062523 75 287 2.0 7.0 0.00 0.00 0.00 15 1012.5
20260508062023 75 360 3.0 5.0 0.00 0.00 0.00 15 1012.5
20260508061523 75 292 2.0 5.0 0.00 0.00 0.00 15 1012.5
20260508061023 76 275 1.0 5.0 0.00 0.00 0.00 16 1012.6
20260508060523 76 360 2.0 6.0 0.00 0.00 0.00 16 1012.6
20260508055523 76 360 4.0 4.0 0.00 0.00 0.00 16 1012.4
20260508055023 77 28 2.0 4.0 0.00 0.00 0.00 16 1012.4
20260508054523 77 53 2.0 2.0 0.00 0.00 0.00 16 1012.4
20260508054023 77 52 0.0 2.0 0.00 0.00 0.00 16 1012.4
20260508053523 78 53 2.0 2.0 0.00 0.00 0.00 15 1012.5
20260508052523 78 53 0.0 2.0 0.00 0.00 0.00 15 1012.6
20260508051523 79 53 0.0 2.0 0.00 0.00 0.00 15 1012.6
20260508051023 80 53 1.0 1.0 0.00 0.00 0.00 15 1012.8
20260508050523 80 53 1.0 1.0 0.00 0.00 0.00 14 1012.8
20260508050023 80 53 0.0 2.0 0.00 0.00 0.00 14 1012.7
20260508045523 80 53 0.0 2.0 0.00 0.00 0.00 14 1012.6
20260508045023 81 53 1.0 2.0 0.00 0.00 0.00 13 1012.7
20260508044523 81 53 1.0 4.0 0.00 0.00 0.00 13 1012.7
20260508044024 81 54 1.0 5.0 0.00 0.00 0.00 13 1012.6
20260508043523 82 53 2.0 5.0 0.00 0.00 0.00 13 1012.7
20260508043023 82 360 2.0 3.0 0.00 0.00 0.00 12 1012.7
20260508042524 82 60 1.0 4.0 0.00 0.00 0.00 12 1012.8
20260508042023 82 60 2.0 4.0 0.00 0.00 0.00 12 1012.7
20260508041523 83 61 2.0 5.0 0.00 0.00 0.00 12 1012.9
20260508041024 83 61 4.0 5.0 0.00 0.00 0.00 12 1012.7
20260508040523 83 67 2.0 7.0 0.00 0.00 0.00 12 1012.7
20260508040022 83 360 3.0 7.0 0.00 0.00 0.00 12 1012.8
20260508035022 84 360 4.0 5.0 0.00 0.00 0.00 12 1012.5
20260508034523 84 360 2.0 5.0 0.00 0.00 0.00 11 1012.5
20260508034023 84 59 1.0 5.0 0.00 0.00 0.00 12 1012.4
20260508033522 85 360 3.0 6.0 0.00 0.00 0.00 11 1012.4
20260508033022 85 63 5.0 6.0 0.00 0.00 0.00 11 1012.2
20260508032523 85 49 4.0 5.0 0.00 0.00 0.00 11 1012.3
20260508032024 86 63 4.0 5.0 0.00 0.00 0.00 11 1012.4
20260508031523 86 44 3.0 5.0 0.00 0.00 0.00 13 1012.4
20260508030523 87 360 1.0 3.0 0.00 0.00 0.00 13 1012.3
20260508030023 87 360 1.0 3.0 0.00 0.00 0.00 13 1012.2
20260508025522 88 360 1.0 3.0 0.00 0.00 0.00 13 1011.9
20260508025022 88 360 0.0 3.0 0.00 0.00 0.00 12 1011.7
20260508024522 88 360 2.0 4.0 0.00 0.00 0.00 12 1011.7
20260508024022 88 360 1.0 6.0 0.00 0.00 0.00 12 1011.7
20260508023523 89 360 4.0 7.0 0.00 0.00 0.00 12 1011.5
20260508023023 89 360 4.0 7.0 0.00 0.00 0.00 12 1011.5
20260508022523 89 360 3.0 5.0 0.00 0.00 0.00 12 1011.5
20260508022022 89 360 2.0 6.0 0.00 0.00 0.00 12 1011.5
20260508021523 90 360 2.0 6.0 0.00 0.00 0.00 12 1011.6
20260508021022 90 360 4.0 7.0 0.00 0.00 0.00 11 1011.5
20260508020522 90 360 3.0 7.0 0.00 0.00 0.00 11 1011.5
20260508020022 90 360 1.0 5.0 0.00 0.00 0.00 11 1011.5
20260508015522 90 360 4.0 7.0 0.00 0.00 0.00 10 1010.7
20260508015022 90 360 3.0 7.0 0.00 0.00 0.00 10 1011.0
20260508014522 90 360 3.0 8.0 0.00 0.00 0.00 10 1010.9
20260508013523 91 360 3.0 9.0 0.00 0.00 0.00 10 1010.9
20260508012522 91 360 3.0 8.0 0.00 0.00 0.00 10 1010.7
20260508012023 91 360 7.0 8.0 0.00 0.00 0.00 10 1010.7
20260508011523 91 360 6.0 8.0 0.00 0.00 0.00 10 1010.9
20260508010523 92 360 4.0 8.0 0.00 0.00 0.00 9 1011.0
20260508010023 92 360 5.0 8.0 0.00 0.00 0.00 10 1011.1
20260508005523 92 191 2.0 9.0 0.00 0.00 0.00 10 1010.9
20260508005023 92 360 3.0 9.0 0.00 0.00 0.00 9 1011.0
20260508004522 92 220 4.0 9.0 0.00 0.00 0.00 9 1011.0
20260508004022 92 360 5.0 11.0 0.00 0.00 0.00 9 1011.1
20260508003522 92 360 7.0 11.0 0.00 0.00 0.00 9 1011.1
20260508003023 92 360 5.0 10.0 0.00 0.00 0.00 9 1010.9
20260508002522 92 360 5.0 10.0 0.00 0.00 0.00 9 1010.9
20260508002022 92 360 10.0 10.0 0.00 0.00 0.00 10 1011.2
20260508001523 92 360 3.0 12.0 0.00 0.00 0.00 10 1011.4
20260508001023 92 360 6.0 12.0 0.00 0.00 0.00 9 1011.3
20260508000023 92 360 3.0 10.0 0.00 0.00 0.00 10 1011.4
20260507235523 92 360 5.0 10.0 0.00 0.00 0.00 10 1011.5
20260507235022 92 360 7.0 10.0 0.00 0.00 0.00 10 1011.6